Minneapolis Flying Cloud, MN

5:42 PM CST on November 20, 2017 (GMT -0600)
Flying Cloud

Weather History for KFCM - December, 2012

Change the Weather History Date:

Monday, December 3, 2012

  Actual Average Record
Temperature  
Mean Temperature 47 °F -  
Max Temperature 55 °F 34 °F 60 °F (1998)
Min Temperature 39 °F 20 °F -4 °F (2007)
Degree Days  
Heating Degree Days 18    
Moisture  
Dew Point 43 °F    
Average Humidity 83    
Maximum Humidity 100    
Minimum Humidity 47    
Precipitation  
Precipitation 0.01 in - - ()
Sea Level Pressure  
Sea Level Pressure 29.67 in    
Wind  
Wind Speed 10 mph (SSW)    
Max Wind Speed 18 mph    
Max Gust Speed 26 mph    
Visibility 5 miles    
Events Rain    
Averages and records for this station are not official NWS values.
T = Trace of Precipitation, MM = Missing Value Source: NWS Daily Summary

Daily Weather History Graph

Daily Weather History Graph

Search for Another Location

Airport or City:

Trip Planner

Search our weather history database for the weather conditions in past years. The results will help you decide how hot, cold, wet, or windy it might be!

Date:

Astronomy

Dec. 03, 2012 Rise Set
Actual Time 7:34 AM CST 4:33 PM CST
Civil Twilight 7:00 AM CST 5:06 PM CST
Nautical Twilight 6:24 AM CST 5:43 PM CST
Astronomical Twilight 5:48 AM CST 6:18 PM CST
Moon 9:28 PM CST (12/3) 10:51 AM CST (12/3)
Length of Visible Light 10h 05m
Length of Day
8h 59m
Waning Gibbous, 78% of the Moon is Illuminated
Dec 3
Waning Gibbous
Dec 6
Last Quarter
Dec 13
New
Dec 19
First Quarter
Dec 28
Full

Hourly Weather History & Observations

Time (CST) Temp. Windchill Dew Point Humidity Pressure Visibility Wind Dir Wind Speed Gust Speed Precip Events Conditions
12:53 AM 39.0 °F 32.8 °F 36.0 °F 89% 29.78 in 4.0 mi SE 9.2 mph - N/A   Clear
1:53 AM 41.0 °F 35.2 °F 39.0 °F 93% 29.76 in 4.0 mi SE 9.2 mph - N/A   Clear
2:53 AM 42.1 °F 36.6 °F 39.9 °F 92% 29.74 in 4.0 mi SSE 9.2 mph - N/A   Clear
3:44 AM 44.6 °F 39.2 °F 42.8 °F 93% 29.69 in 3.0 mi SSE 10.4 mph - N/A   Mostly Cloudy
3:53 AM 44.1 °F 38.6 °F 42.1 °F 93% 29.70 in 3.0 mi SSE 10.4 mph - N/A   Mostly Cloudy
4:11 AM 44.6 °F 38.8 °F 42.8 °F 93% 29.67 in 4.0 mi SSE 11.5 mph - N/A   Overcast
4:28 AM 46.4 °F 41.1 °F 42.8 °F 87% 29.66 in 2.0 mi SE 11.5 mph - N/A   Overcast
4:42 AM 46.4 °F 41.1 °F 44.6 °F 93% 29.65 in 3.0 mi SSE 11.5 mph - N/A   Overcast
4:50 AM 46.4 °F 40.7 °F 44.6 °F 93% 29.65 in 2.5 mi SSE 12.7 mph - N/A   Overcast
4:53 AM 46.9 °F - 45.0 °F 93% 29.68 in 2.0 mi SSE 10.4 mph - N/A   Overcast
5:05 AM 46.4 °F 40.4 °F 44.6 °F 93% 29.65 in 1.8 mi SSE 13.8 mph - N/A   Overcast
5:43 AM 48.2 °F - 46.4 °F 93% 29.64 in 2.0 mi SSE 11.5 mph - N/A   Overcast
5:53 AM 48.9 °F - 46.9 °F 93% 29.65 in 3.0 mi South 12.7 mph - N/A   Overcast
6:39 AM 50.0 °F - 46.4 °F 87% 29.60 in 4.0 mi South 9.2 mph - N/A   Overcast
6:53 AM 50.0 °F - 46.9 °F 89% 29.62 in 4.0 mi South 11.5 mph - N/A   Overcast
7:24 AM 50.0 °F - 48.2 °F 94% 29.59 in 2.5 mi SSE 10.4 mph - N/A   Overcast
7:37 AM 50.0 °F - 48.2 °F 94% 29.59 in 1.8 mi South 6.9 mph - N/A   Overcast
7:53 AM 50.0 °F - 48.9 °F 96% 29.60 in 1.5 mi SSE 8.1 mph - N/A   Overcast
8:11 AM 51.8 °F - 50.0 °F 94% 29.57 in 0.8 mi South 6.9 mph - N/A   Overcast
9:53 AM 54.0 °F - 52.0 °F 93% 29.56 in 2.0 mi South 9.2 mph 17.3 mph N/A   Overcast
10:32 AM 53.6 °F - 51.8 °F 94% 29.54 in 1.5 mi SSW 11.5 mph - 0.00 in Rain Light Rain
10:53 AM 54.0 °F - 52.0 °F 93% 29.57 in 0.8 mi SW 10.4 mph - 0.01 in Rain Light Rain
11:10 AM 53.6 °F - 51.8 °F 94% 29.55 in 1.5 mi SW 11.5 mph - 0.00 in   Overcast
11:25 AM 53.6 °F - 53.6 °F 100% 29.54 in 2.0 mi WSW 10.4 mph - 0.00 in   Overcast
11:33 AM 55.4 °F - 51.8 °F 88% 29.54 in 2.5 mi SW 11.5 mph - 0.00 in   Overcast
11:39 AM 53.6 °F - 51.8 °F 94% 29.54 in 3.0 mi WSW 8.1 mph - 0.00 in   Overcast
11:53 AM 54.0 °F - 52.0 °F 93% 29.55 in 3.0 mi WSW 10.4 mph - 0.00 in   Overcast
12:53 PM 53.1 °F - 44.1 °F 71% 29.58 in 7.0 mi West 15.0 mph 24.2 mph N/A   Mostly Cloudy
1:12 PM 53.6 °F - 42.8 °F 67% 29.58 in 8.0 mi West 11.5 mph 24.2 mph N/A   Scattered Clouds
1:53 PM 54.0 °F - 42.1 °F 64% 29.61 in 10.0 mi WNW 15.0 mph 21.9 mph N/A   Clear
2:53 PM 54.0 °F - 41.0 °F 62% 29.65 in 10.0 mi West 8.1 mph - N/A   Mostly Cloudy
3:53 PM 53.1 °F - 39.9 °F 61% 29.70 in 10.0 mi WNW 18.4 mph 26.5 mph N/A   Mostly Cloudy
4:53 PM 48.9 °F - 39.0 °F 69% 29.76 in 10.0 mi West 13.8 mph - N/A   Clear
5:53 PM 46.0 °F 41.4 °F 35.1 °F 66% 29.81 in 10.0 mi West 9.2 mph - N/A   Clear
6:53 PM 44.1 °F 40.1 °F 34.0 °F 68% 29.84 in 10.0 mi SW 6.9 mph - N/A   Clear
7:53 PM 43.0 °F 38.2 °F 33.1 °F 68% 29.86 in 10.0 mi SW 8.1 mph - N/A   Clear
8:53 PM 42.1 °F 37.7 °F 30.9 °F 65% 29.88 in 10.0 mi West 6.9 mph - N/A   Clear
9:53 PM 43.0 °F 38.2 °F 28.0 °F 56% 29.88 in 10.0 mi West 8.1 mph - N/A   Clear
10:53 PM 46.0 °F 39.9 °F 27.0 °F 47% 29.90 in 10.0 mi West 13.8 mph 18.4 mph N/A   Clear
11:53 PM 44.1 °F 38.6 °F 26.1 °F 49% 29.93 in 10.0 mi West 10.4 mph - N/A   Clear